DW6417 Weather Reports


Display with metric or nautical units.
time (UTC)temp
F
wind
direction
speed
MPH
gust
MPH
rain 1hr
in
rain 24hr
in
rain mn
in
humidity
%
barometer
mb
20260904050711 68 257 7.0 17.0 0.00 0.05 0.00 84 1011.6
20260904045711 68 265 4.0 12.0 0.00 0.05 0.00 85 1011.6
20260904044712 68 246 5.0 13.0 0.00 0.05 0.00 85 1011.5
20260904043713 68 257 5.0 12.0 0.00 0.05 0.00 85 1011.6
20260904042712 68 236 4.0 8.0 0.00 0.05 0.00 85 1011.7
20260904041712 68 237 3.0 11.0 0.00 0.05 0.00 85 1011.8
20260904040712 68 200 5.0 9.0 0.00 0.05 0.00 85 1011.7
20260904035712 68 264 4.0 10.0 0.00 0.05 0.00 85 1012.0
20260904034712 68 240 5.0 11.0 0.00 0.05 0.00 85 1012.3
20260904033712 68 255 5.0 14.0 0.00 0.05 0.00 85 1012.2
20260904032712 68 247 5.0 12.0 0.00 0.05 0.00 85 1012.2
20260904025712 68 207 4.0 9.0 0.00 0.05 0.00 85 1012.3
20260904024712 68 226 4.0 10.0 0.00 0.05 0.00 85 1012.5
20260904023712 68 186 5.0 10.0 0.00 0.05 0.00 85 1012.6
20260904022712 68 234 5.0 11.0 0.00 0.05 0.00 85 1012.7
20260904021712 68 249 4.0 12.0 0.00 0.05 0.00 85 1013.0
20260904020712 68 229 6.0 12.0 0.00 0.05 0.00 85 1013.1
20260904015712 68 208 4.0 11.0 0.00 0.05 0.00 85 1013.3
20260904014712 69 230 5.0 12.0 0.00 0.05 0.00 85 1013.4
20260904013712 69 242 5.0 13.0 0.00 0.05 0.00 85 1013.6
20260904012713 69 251 6.0 14.0 0.00 0.05 0.00 85 1013.6
20260904010712 69 282 5.0 12.0 0.00 0.05 0.00 85 1013.7
20260904005712 69 210 4.0 14.0 0.00 0.05 0.00 85 1013.7
20260904002713 69 253 5.0 10.0 0.00 0.05 0.00 85 1013.9
20260904001713 69 201 5.0 11.0 0.00 0.05 0.00 85 1013.9
20260904000713 69 253 4.0 10.0 0.00 0.05 0.00 85 1014.1
20260903235713 69 188 5.0 11.0 0.00 0.05 0.00 86 1014.3
20260903234713 68 248 5.0 11.0 0.00 0.05 0.00 86 1014.3
20260903233713 68 232 5.0 11.0 0.00 0.05 0.00 86 1014.3
20260903232713 68 255 5.0 12.0 0.00 0.05 0.00 86 1014.3
20260903231713 68 270 5.0 9.0 0.00 0.05 0.00 86 1014.5
20260903230713 68 230 4.0 9.0 0.00 0.05 0.00 86 1014.5
20260903225713 68 240 3.0 10.0 0.00 0.05 0.00 86 1014.6
20260903224713 68 242 3.0 6.0 0.00 0.05 0.00 86 1014.6
20260903223713 68 232 2.0 5.0 0.00 0.05 0.00 86 1014.8
20260903222713 68 207 3.0 9.0 0.00 0.05 0.00 86 1014.9
20260903221713 68 186 2.0 5.0 0.00 0.05 0.00 86 1014.9
20260903220713 68 246 3.0 7.0 0.00 0.05 0.00 86 1014.9
20260903215714 68 247 3.0 8.0 0.00 0.05 0.05 86 1015.0
20260903214713 68 226 3.0 7.0 0.00 0.05 0.05 86 1015.2
20260903213714 69 227 3.0 8.0 0.00 0.05 0.05 85 1015.5
20260903211713 69 244 4.0 11.0 0.00 0.05 0.05 84 1015.5
20260903210713 69 271 5.0 14.0 0.00 0.05 0.05 83 1015.5
20260903205714 69 211 3.0 13.0 0.00 0.05 0.05 82 1015.4
20260903203714 70 236 6.0 16.0 0.00 0.05 0.05 82 1015.6
20260903202714 70 208 5.0 11.0 0.00 0.05 0.05 82 1015.6
20260903201714 69 222 5.0 11.0 0.00 0.05 0.05 82 1015.6
20260903200714 69 193 2.0 6.0 0.00 0.05 0.05 82 1015.6
20260903195714 69 237 2.0 5.0 0.00 0.05 0.05 81 1015.5
20260903194714 69 240 1.0 4.0 0.00 0.05 0.05 81 1015.6
20260903193714 69 242 1.0 3.0 0.00 0.05 0.05 81 1015.6
20260903191714 69 242 3.0 7.0 0.00 0.05 0.05 80 1015.6
20260903190714 69 255 3.0 6.0 0.00 0.05 0.05 79 1015.5
20260903185714 70 257 3.0 7.0 0.00 0.05 0.05 78 1015.6
20260903184714 70 248 3.0 7.0 0.00 0.05 0.05 78 1015.7
20260903182714 71 243 5.0 9.0 0.00 0.05 0.05 76 1015.7
20260903180714 72 267 7.0 13.0 0.00 0.05 0.05 75 1015.7
20260903175714 72 254 8.0 14.0 0.00 0.05 0.05 75 1015.4
20260903174714 72 272 7.0 14.0 0.00 0.05 0.05 75 1015.4
20260903173715 72 224 3.0 10.0 0.00 0.05 0.05 75 1015.3
20260903172715 72 244 6.0 9.0 0.00 0.05 0.05 75 1015.6
20260903171714 72 244 5.0 10.0 0.00 0.05 0.05 76 1015.4
20260903170714 72 294 3.0 7.0 0.00 0.05 0.05 76 1015.7
20260903165714 72 258 3.0 10.0 0.00 0.05 0.05 75 1015.4
20260903164715 72 243 4.0 8.0 0.00 0.05 0.05 74 1015.3
20260903163715 73 246 4.0 11.0 0.00 0.05 0.05 73 1015.2
20260903162715 73 315 3.0 8.0 0.00 0.05 0.05 73 1015.4
20260903161715 73 217 3.0 9.0 0.00 0.05 0.05 74 1015.4
20260903160716 73 262 4.0 9.0 0.00 0.05 0.05 74 1015.5
20260903155715 73 235 7.0 12.0 0.00 0.05 0.05 73 1015.4
20260903154715 73 245 7.0 14.0 0.00 0.05 0.05 72 1015.5
20260903153717 73 254 8.0 14.0 0.00 0.05 0.05 72 1015.5
20260903152715 73 257 4.0 9.0 0.00 0.05 0.05 72 1015.5
20260903151715 74 259 5.0 11.0 0.00 0.05 0.05 71 1015.5
20260903150715 74 244 9.0 15.0 0.00 0.05 0.05 72 1015.5
20260903145715 74 251 8.0 17.0 0.00 0.05 0.05 72 1015.5
20260903144715 74 244 12.0 19.0 0.00 0.05 0.05 70 1015.7
20260903143715 75 255 9.0 16.0 0.00 0.05 0.05 71 1015.6
20260903142715 75 265 7.0 19.0 0.00 0.05 0.05 71 1015.7
20260903141715 75 250 8.0 16.0 0.00 0.05 0.05 71 1015.6
20260903140715 75 251 7.0 18.0 0.00 0.05 0.05 70 1015.6
20260903135715 75 203 6.0 15.0 0.00 0.05 0.05 70 1015.5
20260903134715 75 216 6.0 15.0 0.00 0.05 0.05 71 1015.5
20260903133716 73 267 7.0 16.0 0.00 0.05 0.05 72 1015.7
20260903131715 73 256 8.0 16.0 0.00 0.05 0.05 70 1015.6
20260903130715 74 221 5.0 18.0 0.00 0.05 0.05 71 1015.6
20260903121716 71 267 7.0 14.0 0.00 0.05 0.05 80 1015.6
20260903120716 70 259 5.0 14.0 0.00 0.05 0.05 83 1015.7
20260903115716 69 233 7.0 12.0 0.00 0.05 0.05 83 1015.7
20260903114716 69 242 7.0 13.0 0.00 0.05 0.05 83 1015.7
20260903112659 68 261 8.0 17.0 0.00 0.05 0.05 84 1015.7
20260903111659 67 242 7.0 14.0 0.00 0.05 0.05 84 1015.6
20260903110659 67 249 6.0 14.0 0.00 0.05 0.05 84 1015.7
20260903103659 66 200 5.0 12.0 0.00 0.05 0.05 85 1015.4
20260903102700 66 237 6.0 11.0 0.00 0.05 0.05 85 1015.5
20260903101700 66 271 6.0 13.0 0.00 0.05 0.05 85 1015.5
20260903100700 66 216 5.0 10.0 0.00 0.05 0.05 85 1015.3
20260903095700 66 213 4.0 11.0 0.00 0.05 0.05 86 1015.6
20260903093700 66 247 5.0 12.0 0.00 0.05 0.05 86 1015.6
20260903091700 66 252 5.0 11.0 0.00 0.05 0.05 86 1015.1
20260903090700 65 248 5.0 10.0 0.01 0.05 0.05 86 1015.0
20260903085700 65 257 3.0 9.0 0.01 0.05 0.05 87 1015.2
20260903083700 64 230 4.0 11.0 0.05 0.05 0.05 87 1015.4
20260903082700 64 256 4.0 8.0 0.05 0.05 0.05 87 1015.4
20260903081700 64 252 3.0 8.0 0.05 0.05 0.05 85 1015.3
20260903080700 64 251 3.0 8.0 0.04 0.04 0.04 84 1015.3
20260903075700 65 237 4.0 12.0 0.04 0.04 0.04 81 1015.3
20260903074700 66 235 5.0 14.0 0.03 0.03 0.03 79 1015.4
20260903073700 66 235 5.0 12.0 0.00 0.00 0.00 77 1015.3
20260903072700 66 249 4.0 10.0 0.00 0.00 0.00 76 1015.2
20260903071701 66 232 4.0 11.0 0.00 0.00 0.00 76 1015.3
20260903070700 66 232 5.0 10.0 0.00 0.00 0.00 75 1015.3
20260903065701 66 269 4.0 7.0 0.00 0.00 0.00 75 1015.2
20260903064700 66 189 4.0 12.0 0.00 0.00 0.00 74 1015.2
20260903063700 66 180 4.0 11.0 0.00 0.00 0.00 74 1015.0
20260903062700 66 217 4.0 9.0 0.00 0.00 0.00 73 1015.0
20260903061701 66 276 4.0 11.0 0.00 0.00 0.00 71 1015.0
20260903060700 66 226 3.0 9.0 0.00 0.00 0.00 70 1015.1
20260903055701 65 193 3.0 9.0 0.00 0.00 0.00 70 1015.1
20260903053701 65 229 4.0 9.0 0.00 0.00 0.00 70 1015.2
20260903052701 65 246 4.0 8.0 0.00 0.00 0.00 70 1015.2
20260903051701 65 241 4.0 9.0 0.00 0.00 0.00 70 1014.9